N42DM KOVE-KLVK

Flight info

Callsign N42DM
Flight time 1h 3m
Altitude 6500
Route MYV SAC
Aircraft DR40/M-VGD/C

Departure

Time 2026-04-15 23:39
Airport Oroville Municipal Airport (KOVE)

Arrival

Time 2026-04-16 00:42
Airport Livermore Municipal Airport (KLVK)
Time Latitude Longitude Altitude Speed Heading
2026-04-15 23:29 39.48975 -121.61988 177 ft 0 kts 33°
2026-04-15 23:36 39.49068 -121.62017 179 ft 4 kts 34°
2026-04-15 23:36 39.49101 -121.61987 180 ft 6 kts 32°
2026-04-15 23:36 39.49137 -121.61961 180 ft 5 kts 32°
2026-04-15 23:36 39.49168 -121.61932 181 ft 5 kts 34°
2026-04-15 23:37 39.49198 -121.61917 182 ft 4 kts 354°
2026-04-15 23:37 39.49224 -121.61948 182 ft 5 kts 300°
2026-04-15 23:37 39.49242 -121.61985 183 ft 4 kts 304°
2026-04-15 23:37 39.49256 -121.62011 182 ft 4 kts 301°
2026-04-15 23:38 39.49244 -121.62045 181 ft 0 kts 209°
2026-04-15 23:38 39.49126 -121.62141 178 ft 52 kts 211°
2026-04-15 23:38 39.48708 -121.62489 324 ft 77 kts 211°
2026-04-15 23:38 39.48268 -121.62831 643 ft 71 kts 198°
2026-04-15 23:39 39.47865 -121.63187 939 ft 72 kts 215°
2026-04-15 23:39 39.47486 -121.63564 1208 ft 69 kts 213°
2026-04-15 23:39 39.47058 -121.63787 1448 ft 68 kts 179°
2026-04-15 23:39 39.46608 -121.63527 1657 ft 74 kts 154°
2026-04-15 23:40 39.46188 -121.63145 1873 ft 75 kts 152°
2026-04-15 23:40 39.45753 -121.62751 2089 ft 77 kts 152°
2026-04-15 23:40 39.45305 -121.62405 2319 ft 74 kts 162°
2026-04-15 23:40 39.44831 -121.62136 2541 ft 75 kts 165°
2026-04-15 23:41 39.44338 -121.61932 2756 ft 75 kts 169°
2026-04-15 23:41 39.43828 -121.61771 2958 ft 77 kts 173°
2026-04-15 23:41 39.43304 -121.61636 3183 ft 77 kts 174°
2026-04-15 23:41 39.42778 -121.61515 3396 ft 76 kts 175°
2026-04-15 23:42 39.42249 -121.61414 3590 ft 77 kts 176°
2026-04-15 23:42 39.41716 -121.61324 3785 ft 78 kts 177°
2026-04-15 23:42 39.41169 -121.61240 3983 ft 79 kts 178°
2026-04-15 23:42 39.40633 -121.61160 4186 ft 78 kts 179°
2026-04-15 23:43 39.40094 -121.61088 4379 ft 76 kts 182°
2026-04-15 23:43 39.39569 -121.61027 4522 ft 76 kts 181°
2026-04-15 23:43 39.39030 -121.60963 4653 ft 78 kts 182°
2026-04-15 23:43 39.38483 -121.60898 4790 ft 79 kts 182°
2026-04-15 23:44 39.37941 -121.60828 4932 ft 79 kts 182°
2026-04-15 23:44 39.37391 -121.60761 5062 ft 80 kts 182°
2026-04-15 23:44 39.36835 -121.60691 5197 ft 80 kts 183°
2026-04-15 23:44 39.36274 -121.60618 5333 ft 81 kts 182°
2026-04-15 23:45 39.35711 -121.60541 5471 ft 82 kts 182°
2026-04-15 23:45 39.35140 -121.60471 5608 ft 82 kts 183°
2026-04-15 23:45 39.34573 -121.60404 5740 ft 83 kts 182°
2026-04-15 23:45 39.33996 -121.60331 5877 ft 83 kts 183°
2026-04-15 23:46 39.33417 -121.60256 6015 ft 83 kts 182°
2026-04-15 23:46 39.32835 -121.60184 6144 ft 84 kts 183°
2026-04-15 23:46 39.32255 -121.60112 6277 ft 85 kts 183°
2026-04-15 23:46 39.31661 -121.60034 6414 ft 85 kts 184°
2026-04-15 23:47 39.31046 -121.59963 6462 ft 94 kts 183°
2026-04-15 23:47 39.30360 -121.59885 6463 ft 102 kts 182°
2026-04-15 23:47 39.29630 -121.59800 6459 ft 107 kts 182°
2026-04-15 23:47 39.28876 -121.59703 6456 ft 109 kts 182°
2026-04-15 23:48 39.28120 -121.59605 6454 ft 110 kts 181°
2026-04-15 23:48 39.27361 -121.59509 6452 ft 110 kts 181°
2026-04-15 23:48 39.26590 -121.59409 6453 ft 110 kts 181°
2026-04-15 23:48 39.25818 -121.59312 6453 ft 110 kts 181°
2026-04-15 23:49 39.25060 -121.59216 6454 ft 110 kts 182°
2026-04-15 23:49 39.24294 -121.59118 6456 ft 110 kts 181°
2026-04-15 23:49 39.23526 -121.59021 6457 ft 110 kts 182°
2026-04-15 23:49 39.22763 -121.58925 6459 ft 110 kts 182°
2026-04-15 23:50 39.22000 -121.58827 6460 ft 110 kts 182°
2026-04-15 23:50 39.21240 -121.58729 6461 ft 110 kts 181°
2026-04-15 23:50 39.20476 -121.58636 6461 ft 110 kts 181°
2026-04-15 23:51 39.19193 -121.58471 6463 ft 110 kts 181°
2026-04-15 23:51 39.18173 -121.58340 6462 ft 110 kts 181°
2026-04-15 23:51 39.17411 -121.58244 6463 ft 110 kts 181°
2026-04-15 23:51 39.16643 -121.58145 6463 ft 110 kts 182°
2026-04-15 23:52 39.15874 -121.58048 6463 ft 111 kts 182°
2026-04-15 23:52 39.15100 -121.57952 6461 ft 111 kts 181°
2026-04-15 23:52 39.14323 -121.57856 6461 ft 111 kts 181°
2026-04-15 23:52 39.13549 -121.57757 6461 ft 111 kts 180°
2026-04-15 23:53 39.12781 -121.57661 6462 ft 112 kts 181°
2026-04-15 23:53 39.11999 -121.57564 6464 ft 112 kts 181°
2026-04-15 23:53 39.11227 -121.57471 6464 ft 112 kts 181°
2026-04-15 23:53 39.10451 -121.57379 6465 ft 112 kts 181°
2026-04-15 23:54 39.09685 -121.57197 6465 ft 114 kts 166°
2026-04-15 23:54 39.08915 -121.57127 6465 ft 109 kts 189°
2026-04-15 23:54 39.08150 -121.57162 6466 ft 109 kts 188°
2026-04-15 23:54 39.07388 -121.57176 6465 ft 110 kts 187°
2026-04-15 23:55 39.06622 -121.57168 6465 ft 109 kts 186°
2026-04-15 23:55 39.05862 -121.57156 6464 ft 109 kts 186°
2026-04-15 23:55 39.05097 -121.57137 6466 ft 109 kts 185°
2026-04-15 23:55 39.04341 -121.57114 6469 ft 109 kts 186°
2026-04-15 23:56 39.03577 -121.57089 6468 ft 110 kts 185°
2026-04-15 23:56 39.02809 -121.57066 6468 ft 110 kts 185°
2026-04-15 23:56 39.02043 -121.57044 6468 ft 110 kts 186°
2026-04-15 23:56 39.01266 -121.57022 6467 ft 110 kts 185°
2026-04-15 23:57 39.00507 -121.56998 6467 ft 110 kts 185°
2026-04-15 23:57 38.99728 -121.56975 6468 ft 111 kts 185°
2026-04-15 23:57 38.98958 -121.56951 6469 ft 111 kts 185°
2026-04-15 23:57 38.98183 -121.56928 6469 ft 111 kts 185°
2026-04-15 23:58 38.97414 -121.56902 6470 ft 111 kts 185°
2026-04-15 23:58 38.96640 -121.56874 6470 ft 111 kts 185°
2026-04-15 23:58 38.95868 -121.56850 6469 ft 111 kts 186°
2026-04-15 23:58 38.95085 -121.56822 6469 ft 111 kts 186°
2026-04-15 23:59 38.94311 -121.56796 6468 ft 111 kts 186°
2026-04-15 23:59 38.93535 -121.56774 6466 ft 111 kts 186°
2026-04-15 23:59 38.92760 -121.56747 6466 ft 111 kts 186°
2026-04-15 23:59 38.91983 -121.56724 6465 ft 112 kts 185°
2026-04-16 00:00 38.91206 -121.56699 6465 ft 112 kts 186°
2026-04-16 00:00 38.90425 -121.56671 6469 ft 111 kts 186°
2026-04-16 00:00 38.89641 -121.56647 6472 ft 112 kts 186°
2026-04-16 00:00 38.88864 -121.56621 6474 ft 112 kts 185°
2026-04-16 00:01 38.88079 -121.56596 6476 ft 112 kts 185°
2026-04-16 00:01 38.87305 -121.56569 6475 ft 112 kts 184°
2026-04-16 00:01 38.86524 -121.56542 6476 ft 112 kts 185°
2026-04-16 00:01 38.85739 -121.56516 6475 ft 112 kts 185°
2026-04-16 00:02 38.84948 -121.56486 6472 ft 112 kts 185°
2026-04-16 00:02 38.84170 -121.56459 6471 ft 112 kts 185°
2026-04-16 00:02 38.83387 -121.56432 6471 ft 112 kts 185°
2026-04-16 00:02 38.82607 -121.56405 6473 ft 112 kts 185°
2026-04-16 00:03 38.81827 -121.56381 6471 ft 112 kts 186°
2026-04-16 00:03 38.81047 -121.56355 6470 ft 112 kts 185°
2026-04-16 00:03 38.80265 -121.56330 6469 ft 112 kts 185°
2026-04-16 00:03 38.79491 -121.56305 6472 ft 112 kts 186°
2026-04-16 00:04 38.78705 -121.56279 6473 ft 112 kts 185°
2026-04-16 00:04 38.77925 -121.56251 6475 ft 112 kts 185°
2026-04-16 00:04 38.77149 -121.56226 6476 ft 112 kts 186°
2026-04-16 00:04 38.76375 -121.56203 6476 ft 111 kts 186°
2026-04-16 00:05 38.75595 -121.56177 6476 ft 112 kts 185°
2026-04-16 00:05 38.74808 -121.56151 6476 ft 112 kts 185°
2026-04-16 00:05 38.74036 -121.56125 6477 ft 112 kts 186°
2026-04-16 00:05 38.73254 -121.56100 6478 ft 112 kts 186°
2026-04-16 00:06 38.72477 -121.56077 6478 ft 112 kts 185°
2026-04-16 00:06 38.71697 -121.56050 6478 ft 112 kts 186°
2026-04-16 00:06 38.70913 -121.56023 6477 ft 112 kts 186°
2026-04-16 00:06 38.70138 -121.55999 6479 ft 111 kts 184°
2026-04-16 00:07 38.69355 -121.55969 6479 ft 111 kts 185°
2026-04-16 00:07 38.68584 -121.55940 6477 ft 112 kts 184°
2026-04-16 00:07 38.67805 -121.55913 6475 ft 112 kts 185°
2026-04-16 00:07 38.67020 -121.55885 6473 ft 113 kts 184°
2026-04-16 00:08 38.66230 -121.55855 6472 ft 113 kts 184°
2026-04-16 00:08 38.65441 -121.55826 6473 ft 113 kts 184°
2026-04-16 00:08 38.64651 -121.55796 6473 ft 113 kts 184°
2026-04-16 00:08 38.63875 -121.55768 6471 ft 112 kts 184°
2026-04-16 00:09 38.63086 -121.55740 6470 ft 112 kts 184°
2026-04-16 00:09 38.62306 -121.55713 6470 ft 113 kts 184°
2026-04-16 00:09 38.61515 -121.55686 6468 ft 113 kts 184°
2026-04-16 00:09 38.60726 -121.55660 6466 ft 113 kts 186°
2026-04-16 00:10 38.59935 -121.55646 6468 ft 113 kts 185°
2026-04-16 00:10 38.59141 -121.55626 6471 ft 114 kts 185°
2026-04-16 00:10 38.58347 -121.55604 6471 ft 114 kts 185°
2026-04-16 00:10 38.57553 -121.55582 6470 ft 114 kts 184°
2026-04-16 00:11 38.56749 -121.55557 6472 ft 114 kts 184°
2026-04-16 00:11 38.55955 -121.55532 6475 ft 114 kts 184°
2026-04-16 00:11 38.55164 -121.55507 6476 ft 114 kts 184°
2026-04-16 00:11 38.54369 -121.55481 6476 ft 114 kts 184°
2026-04-16 00:12 38.53573 -121.55454 6477 ft 114 kts 184°
2026-04-16 00:12 38.52776 -121.55427 6477 ft 114 kts 184°
2026-04-16 00:12 38.51976 -121.55399 6477 ft 114 kts 184°
2026-04-16 00:12 38.51178 -121.55369 6480 ft 115 kts 184°
2026-04-16 00:13 38.50373 -121.55341 6482 ft 115 kts 184°
2026-04-16 00:13 38.49569 -121.55312 6483 ft 116 kts 184°
2026-04-16 00:13 38.48763 -121.55286 6482 ft 116 kts 184°
2026-04-16 00:13 38.47953 -121.55270 6481 ft 115 kts 185°
2026-04-16 00:14 38.47152 -121.55250 6478 ft 115 kts 185°
2026-04-16 00:14 38.46354 -121.55226 6478 ft 115 kts 185°
2026-04-16 00:14 38.45547 -121.55202 6478 ft 114 kts 185°
2026-04-16 00:14 38.44754 -121.55178 6479 ft 114 kts 184°
2026-04-16 00:15 38.43980 -121.55325 6480 ft 110 kts 201°
2026-04-16 00:15 38.43243 -121.55580 6481 ft 111 kts 201°
2026-04-16 00:15 38.42490 -121.55848 6482 ft 111 kts 202°
2026-04-16 00:15 38.41747 -121.56115 6483 ft 111 kts 202°
2026-04-16 00:16 38.40999 -121.56385 6485 ft 112 kts 202°
2026-04-16 00:16 38.40242 -121.56658 6483 ft 112 kts 202°
2026-04-16 00:16 38.39495 -121.56924 6482 ft 112 kts 202°
2026-04-16 00:16 38.38739 -121.57198 6479 ft 112 kts 202°
2026-04-16 00:17 38.37986 -121.57470 6477 ft 112 kts 202°
2026-04-16 00:17 38.37245 -121.57737 6478 ft 111 kts 201°
2026-04-16 00:17 38.36492 -121.58010 6479 ft 111 kts 201°
2026-04-16 00:17 38.35751 -121.58277 6480 ft 111 kts 202°
2026-04-16 00:18 38.34982 -121.58461 6478 ft 116 kts 181°
2026-04-16 00:18 38.34184 -121.58319 6483 ft 116 kts 178°
2026-04-16 00:18 38.33371 -121.58226 6484 ft 116 kts 182°
2026-04-16 00:18 38.32574 -121.58199 6487 ft 115 kts 186°
2026-04-16 00:19 38.31766 -121.58222 6489 ft 115 kts 188°
2026-04-16 00:19 38.30967 -121.58282 6488 ft 115 kts 189°
2026-04-16 00:19 38.30161 -121.58370 6488 ft 115 kts 191°
2026-04-16 00:19 38.29358 -121.58479 6488 ft 115 kts 192°
2026-04-16 00:20 38.28563 -121.58603 6487 ft 115 kts 193°
2026-04-16 00:20 38.27773 -121.58737 6489 ft 115 kts 194°
2026-04-16 00:20 38.26973 -121.58881 6488 ft 115 kts 194°
2026-04-16 00:20 38.26183 -121.59029 6486 ft 115 kts 194°
2026-04-16 00:21 38.25384 -121.59182 6480 ft 114 kts 194°
2026-04-16 00:21 38.24604 -121.59336 6480 ft 114 kts 194°
2026-04-16 00:21 38.23816 -121.59492 6482 ft 113 kts 194°
2026-04-16 00:21 38.23034 -121.59650 6484 ft 113 kts 194°
2026-04-16 00:22 38.22249 -121.59805 6488 ft 114 kts 193°
2026-04-16 00:22 38.21465 -121.59942 6489 ft 115 kts 193°
2026-04-16 00:22 38.20660 -121.60081 6488 ft 115 kts 195°
2026-04-16 00:22 38.19902 -121.60355 6486 ft 113 kts 205°
2026-04-16 00:23 38.19161 -121.60682 6491 ft 113 kts 206°
2026-04-16 00:23 38.18419 -121.61011 6493 ft 113 kts 205°
2026-04-16 00:23 38.17677 -121.61337 6495 ft 113 kts 205°
2026-04-16 00:23 38.16919 -121.61670 6496 ft 114 kts 205°
2026-04-16 00:24 38.16177 -121.61994 6494 ft 114 kts 205°
2026-04-16 00:24 38.15421 -121.62324 6491 ft 113 kts 205°
2026-04-16 00:24 38.14675 -121.62648 6490 ft 113 kts 205°
2026-04-16 00:24 38.13938 -121.62968 6488 ft 112 kts 205°
2026-04-16 00:25 38.13189 -121.63290 6491 ft 112 kts 205°
2026-04-16 00:25 38.12454 -121.63608 6491 ft 112 kts 205°
2026-04-16 00:25 38.11709 -121.63928 6494 ft 113 kts 205°
2026-04-16 00:25 38.10959 -121.64249 6494 ft 113 kts 204°
2026-04-16 00:26 38.10212 -121.64567 6495 ft 113 kts 204°
2026-04-16 00:26 38.09459 -121.64887 6498 ft 114 kts 204°
2026-04-16 00:26 38.08701 -121.65211 6501 ft 114 kts 204°
2026-04-16 00:26 38.07956 -121.65527 6501 ft 113 kts 204°
2026-04-16 00:27 38.07205 -121.65850 6503 ft 113 kts 205°
2026-04-16 00:27 38.06457 -121.66183 6504 ft 113 kts 205°
2026-04-16 00:27 38.05708 -121.66510 6504 ft 113 kts 205°
2026-04-16 00:27 38.04968 -121.66829 6493 ft 114 kts 205°
2026-04-16 00:28 38.04206 -121.67158 6447 ft 116 kts 205°
2026-04-16 00:28 38.03444 -121.67484 6443 ft 114 kts 205°
2026-04-16 00:28 38.02689 -121.67806 6443 ft 114 kts 205°
2026-04-16 00:28 38.01935 -121.68127 6445 ft 114 kts 205°
2026-04-16 00:29 38.01184 -121.68448 6446 ft 114 kts 205°
2026-04-16 00:29 38.00431 -121.68770 6447 ft 114 kts 205°
2026-04-16 00:29 37.99672 -121.69093 6450 ft 114 kts 204°
2026-04-16 00:29 37.98924 -121.69411 6451 ft 114 kts 205°
2026-04-16 00:30 37.98167 -121.69733 6454 ft 114 kts 205°
2026-04-16 00:30 37.97408 -121.70061 6452 ft 114 kts 206°
2026-04-16 00:30 37.96658 -121.70385 6452 ft 114 kts 205°
2026-04-16 00:30 37.95909 -121.70707 6453 ft 114 kts 205°
2026-04-16 00:31 37.95151 -121.71032 6462 ft 114 kts 205°
2026-04-16 00:31 37.94396 -121.71355 6457 ft 114 kts 205°
2026-04-16 00:31 37.93646 -121.71676 6457 ft 114 kts 205°
2026-04-16 00:31 37.92887 -121.72000 6457 ft 114 kts 204°
2026-04-16 00:32 37.92132 -121.72323 6451 ft 115 kts 205°
2026-04-16 00:32 37.91344 -121.72662 6355 ft 121 kts 205°
2026-04-16 00:32 37.90540 -121.73006 6258 ft 124 kts 204°
2026-04-16 00:32 37.89722 -121.73356 6133 ft 121 kts 205°
2026-04-16 00:33 37.88923 -121.73697 6009 ft 120 kts 205°
2026-04-16 00:33 37.88141 -121.74033 5854 ft 118 kts 205°
2026-04-16 00:33 37.87359 -121.74370 5629 ft 120 kts 205°
2026-04-16 00:33 37.86569 -121.74708 5410 ft 120 kts 205°
2026-04-16 00:34 37.85772 -121.75047 5190 ft 120 kts 205°
2026-04-16 00:34 37.84965 -121.75338 4971 ft 122 kts 198°
2026-04-16 00:34 37.84123 -121.75559 4711 ft 124 kts 197°
2026-04-16 00:34 37.83297 -121.75776 4443 ft 122 kts 197°
2026-04-16 00:35 37.82465 -121.75987 4170 ft 121 kts 195°
2026-04-16 00:35 37.81625 -121.76087 3896 ft 117 kts 189°
2026-04-16 00:35 37.80854 -121.76127 3605 ft 106 kts 188°
2026-04-16 00:35 37.80150 -121.76141 3310 ft 100 kts 189°
2026-04-16 00:36 37.79465 -121.76147 3009 ft 97 kts 187°
2026-04-16 00:36 37.78795 -121.76150 2706 ft 95 kts 189°
2026-04-16 00:36 37.78142 -121.76144 2411 ft 94 kts 187°
2026-04-16 00:36 37.77493 -121.76136 2115 ft 93 kts 188°
2026-04-16 00:37 37.76857 -121.76128 1868 ft 92 kts 188°
2026-04-16 00:37 37.76212 -121.76121 1588 ft 91 kts 188°
2026-04-16 00:37 37.75619 -121.76104 1456 ft 77 kts 187°
2026-04-16 00:37 37.75091 -121.76078 1476 ft 76 kts 186°
2026-04-16 00:38 37.74541 -121.76072 1466 ft 82 kts 188°
2026-04-16 00:38 37.73976 -121.76060 1461 ft 79 kts 187°
2026-04-16 00:38 37.73428 -121.76046 1469 ft 77 kts 187°
2026-04-16 00:38 37.72894 -121.76032 1462 ft 76 kts 188°
2026-04-16 00:39 37.72359 -121.76012 1468 ft 77 kts 187°
2026-04-16 00:39 37.71811 -121.75997 1467 ft 80 kts 188°
2026-04-16 00:39 37.71250 -121.75986 1469 ft 82 kts 187°
2026-04-16 00:39 37.70665 -121.76013 1470 ft 84 kts 201°
2026-04-16 00:40 37.70182 -121.76402 1470 ft 82 kts 236°
2026-04-16 00:40 37.69876 -121.77009 1489 ft 79 kts 251°
2026-04-16 00:40 37.69696 -121.77625 1481 ft 74 kts 257°
2026-04-16 00:40 37.69559 -121.78249 1415 ft 74 kts 261°
2026-04-16 00:41 37.69484 -121.78899 1252 ft 70 kts 268°
2026-04-16 00:41 37.69433 -121.79489 1037 ft 67 kts 268°
2026-04-16 00:41 37.69393 -121.80072 824 ft 69 kts 270°
2026-04-16 00:41 37.69371 -121.80673 589 ft 66 kts 271°
2026-04-16 00:42 37.69375 -121.81195 403 ft 50 kts 272°
2026-04-16 00:42 37.69389 -121.81531 395 ft 29 kts 272°
2026-04-16 00:42 37.69388 -121.81737 391 ft 18 kts 271°
2026-04-16 00:42 37.69436 -121.81836 390 ft 12 kts 354°
2026-04-16 00:43 37.69499 -121.81800 390 ft 10 kts 61°
2026-04-16 00:43 37.69530 -121.81743 391 ft 7 kts 342°
2026-04-16 00:43 37.69537 -121.81782 390 ft 0 kts 271°